This is the latest recevied weather packets stored in our database for station/object KJ5JYX. If no packets are shown the sender has not sent any weather packets the latest 10 day(s).
| Time | Temp. | Humidity | Pressure | Rain* | Wind** | Luminosity | Snow |
|---|---|---|---|---|---|---|---|
| 1777661041 | 14.44° C | 99% | 1014.8 hPa | 0 mm | - | 192 W/m² | - |
| 1777660735 | 13.89° C | 99% | 1014.4 hPa | 0 mm | - | 336 W/m² | - |
| 1777660433 | 13.89° C | 99% | 1014.3 hPa | 0 mm | - | 210 W/m² | - |
| 1777660129 | 14.44° C | 99% | 1014 hPa | 0 mm | - | 153 W/m² | - |
| 1777659826 | 14.44° C | 99% | 1014.3 hPa | 0 mm | - | 223 W/m² | - |
| 1777659523 | 13.89° C | 99% | 1014.4 hPa | 0 mm | - | 287 W/m² | - |
| 1777659220 | 13.89° C | 99% | 1014.8 hPa | 1.78 mm | - | 431 W/m² | - |
| 1777658917 | 13.89° C | 99% | 1014.9 hPa | 3.05 mm | - | 210 W/m² | - |
| 1777658613 | 13.89° C | 99% | 1015.2 hPa | 6.1 mm | - | 192 W/m² | - |
| 1777658311 | 13.89° C | 99% | 1015.9 hPa | 7.87 mm | - | 128 W/m² | - |
| 1777658007 | 13.33° C | 99% | 1016.7 hPa | 6.6 mm | - | 111 W/m² | - |
| 1777657704 | 13.33° C | 99% | 1017.3 hPa | 4.83 mm | - | 62 W/m² | - |
| 1777657401 | 13.33° C | 99% | 1017.5 hPa | 4.32 mm | - | 41 W/m² | - |
| 1777657100 | 13.33° C | 99% | 1017.4 hPa | 7.11 mm | - | 45 W/m² | - |
| 1777656797 | 13.33° C | 99% | 1017 hPa | 13.72 mm | - | 24 W/m² | - |
| 1777656492 | 13.33° C | 99% | 1016.9 hPa | 13.72 mm | - | 19 W/m² | - |
| 1777656187 | 13.33° C | 99% | 1016.5 hPa | 8.89 mm | - | 44 W/m² | - |
| 1777655883 | 13.33° C | 99% | 1016.3 hPa | 3.05 mm | - | 29 W/m² | - |
| 1777655580 | 13.33° C | 99% | 1016.3 hPa | 0 mm | - | 34 W/m² | - |
| 1777655277 | 13.89° C | 98% | 1016 hPa | 0 mm | - | 34 W/m² | - |
| 1777654974 | 13.89° C | 99% | 1015.3 hPa | 0 mm | - | 53 W/m² | - |
| 1777654671 | 13.89° C | 98% | 1015 hPa | 0 mm | - | 68 W/m² | - |
| 1777654369 | 13.89° C | 98% | 1015 hPa | 0 mm | - | 135 W/m² | - |
| 1777654067 | 13.89° C | 98% | 1015.2 hPa | 0 mm | - | 92 W/m² | - |
| 1777653764 | 14.44° C | 98% | 1014.9 hPa | 0 mm | - | 95 W/m² | - |
* Rain latest hour (hover to see other rain measurements)
** Current wind speed in m/s (hover to see current wind gust speed)